When you browse on this site, cookies collect data to enhance your experience and personalize the content and advertising you see.
Visit our Privacy Policy to learn more. By continuing to use the site, you agree to this use of cookies and data.
  • In United Kingdom
  • List of Countries
  • For 7 days
  • Water Temperature
  • Weather Map
  • Weather Widgets
  • user-avatar
    Login

    Hourly Weather Apolyanka

    Today, 29 January, Wednesday

    Time Temperature Precipitation Wind Pressure Humidity
    00:00 +1°C° 0 mm 2 mps 737 mmHg 93%
    01:00 +1°C° 0 mm 2 mps 736 mmHg 95%
    02:00 0°C° 0 mm 3 mps 736 mmHg 98%
    03:00 +1°C° 0 mm 3 mps 736 mmHg 97%
    04:00 0°C° 0 mm 4 mps 735 mmHg 97%
    05:00 0°C° 0 mm 4 mps 735 mmHg 97%
    06:00 0°C° 0 mm 5 mps 734 mmHg 97%
    07:00 0°C° 0 mm 5 mps 734 mmHg 96%
    08:00 -1°C° 0 mm 6 mps 734 mmHg 96%
    09:00 +1°C° 0 mm 6 mps 733 mmHg 92%
    10:00 +2°C° 0 mm 6 mps 732 mmHg 88%
    11:00 +3°C° 0 mm 6 mps 732 mmHg 84%
    12:00 +2°C° 0.7 mm 6 mps 732 mmHg 87%
    13:00 +2°C° 0.7 mm 5 mps 732 mmHg 91%
    14:00 +1°C° 0.7 mm 4 mps 731 mmHg 94%
    15:00 +1°C° 0.9 mm 5 mps 732 mmHg 92%
    16:00 +1°C° 0.9 mm 5 mps 732 mmHg 89%
    17:00 +1°C° 0.9 mm 6 mps 732 mmHg 86%
    18:00 +1°C° 0 mm 6 mps 732 mmHg 83%
    19:00 -1°C° 0 mm 6 mps 733 mmHg 80%
    20:00 -1°C° 0 mm 6 mps 734 mmHg 76%
    21:00 -1°C° 0 mm 6 mps 734 mmHg 77%
    22:00 -2°C° 0 mm 6 mps 735 mmHg 77%
    23:00 -2°C° 0 mm 6 mps 735 mmHg 78%

    Tomorrow, 30 January, Thursday

    Time Temperature Precipitation Wind Pressure Humidity
    00:00 -2°C° 0 mm 6 mps 735 mmHg 79%
    01:00 -2°C° 0 mm 6 mps 736 mmHg 81%
    02:00 -2°C° 0 mm 6 mps 736 mmHg 82%
    03:00 -2°C° 0 mm 6 mps 736 mmHg 80%
    04:00 -2°C° 0 mm 6 mps 736 mmHg 77%
    05:00 -2°C° 0 mm 6 mps 735 mmHg 75%
    06:00 -2°C° 0 mm 6 mps 736 mmHg 77%
    07:00 -2°C° 0 mm 6 mps 736 mmHg 78%
    08:00 -2°C° 0 mm 6 mps 737 mmHg 80%
    09:00 -1°C° 0 mm 7 mps 737 mmHg 76%
    10:00 -1°C° 0 mm 7 mps 737 mmHg 73%
    11:00 0°C° 0 mm 7 mps 737 mmHg 69%
    12:00 0°C° 0 mm 7 mps 737 mmHg 68%
    13:00 0°C° 0 mm 7 mps 738 mmHg 67%
    14:00 0°C° 0 mm 7 mps 738 mmHg 66%
    15:00 +1°C° 0 mm 6 mps 738 mmHg 69%
    16:00 +1°C° 0 mm 6 mps 738 mmHg 73%
    17:00 0°C° 0 mm 5 mps 738 mmHg 76%
    18:00 -1°C° 0 mm 6 mps 738 mmHg 80%
    19:00 -1°C° 0 mm 6 mps 739 mmHg 84%
    20:00 -2°C° 0 mm 6 mps 739 mmHg 88%
    21:00 -2°C° 0 mm 6 mps 739 mmHg 87%
    22:00 -1°C° 0 mm 5 mps 739 mmHg 87%
    23:00 -1°C° 0 mm 5 mps 739 mmHg 86%

    Day after tomorrow, 31 January, Friday

    Time Temperature Precipitation Wind Pressure Humidity
    00:00 -1°C° 0 mm 4 mps 739 mmHg 86%
    01:00 -2°C° 0 mm 4 mps 739 mmHg 85%
    02:00 -2°C° 0 mm 4 mps 740 mmHg 85%
    03:00 -2°C° 0 mm 4 mps 739 mmHg 84%
    04:00 -3°C° 0 mm 4 mps 739 mmHg 83%
    05:00 -3°C° 0 mm 4 mps 739 mmHg 82%
    06:00 -2°C° 0 mm 4 mps 739 mmHg 81%
    07:00 -2°C° 0 mm 5 mps 738 mmHg 80%
    08:00 -2°C° 0 mm 5 mps 738 mmHg 79%
    09:00 -1°C° 0 mm 5 mps 738 mmHg 73%
    10:00 0°C° 0 mm 5 mps 737 mmHg 66%
    11:00 +1°C° 0 mm 5 mps 737 mmHg 59%
    12:00 +2°C° 0 mm 5 mps 736 mmHg 58%
    13:00 +2°C° 0 mm 5 mps 736 mmHg 57%
    14:00 +3°C° 0 mm 5 mps 735 mmHg 56%
    15:00 +2°C° 0.1 mm 5 mps 735 mmHg 64%
    16:00 +1°C° 0.1 mm 4 mps 734 mmHg 72%
    17:00 0°C° 0.1 mm 4 mps 734 mmHg 80%
    18:00 0°C° 0.3 mm 4 mps 734 mmHg 86%
    19:00 +1°C° 0.3 mm 3 mps 734 mmHg 91%
    20:00 +1°C° 0.3 mm 3 mps 734 mmHg 96%
    21:00 +2°C° 0 mm 2 mps 734 mmHg 97%
    22:00 +2°C° 0 mm 2 mps 734 mmHg 97%
    23:00 +3°C° 0 mm 1 mps 734 mmHg 97%

    1 February, Saturday

    Time Temperature Precipitation Wind Pressure Humidity
    00:00 +3°C° 0 mm 1 mps 735 mmHg 97%
    01:00 +3°C° 0 mm 1 mps 735 mmHg 97%
    02:00 +3°C° 0 mm 1 mps 736 mmHg 97%
    03:00 +2°C° 0 mm 2 mps 736 mmHg 96%
    04:00 +2°C° 0 mm 2 mps 737 mmHg 96%
    05:00 +1°C° 0 mm 3 mps 737 mmHg 96%
    06:00 +1°C° 0 mm 3 mps 738 mmHg 94%
    07:00 +1°C° 0 mm 3 mps 738 mmHg 92%
    08:00 +1°C° 0 mm 3 mps 739 mmHg 91%
    09:00 +1°C° 0 mm 3 mps 739 mmHg 89%
    10:00 +2°C° 0 mm 3 mps 740 mmHg 86%
    11:00 +2°C° 0 mm 3 mps 740 mmHg 84%
    12:00 +3°C° 0 mm 3 mps 740 mmHg 82%
    13:00 +3°C° 0 mm 3 mps 740 mmHg 80%
    14:00 +3°C° 0 mm 3 mps 740 mmHg 78%
    15:00 +3°C° 0 mm 3 mps 741 mmHg 81%
    16:00 +4°C° 0 mm 2 mps 741 mmHg 83%
    17:00 +4°C° 0 mm 2 mps 741 mmHg 85%
    18:00 +4°C° 0 mm 2 mps 741 mmHg 87%
    19:00 +4°C° 0 mm 2 mps 741 mmHg 89%
    20:00 +4°C° 0 mm 2 mps 741 mmHg 91%
    21:00 +4°C° 0 mm 2 mps 741 mmHg 91%
    22:00 +4°C° 0 mm 2 mps 741 mmHg 92%
    23:00 +4°C° 0 mm 2 mps 741 mmHg 92%

    2 February, Sunday

    Time Temperature Precipitation Wind Pressure Humidity
    00:00 +3°C° 0 mm 3 mps 741 mmHg 90%
    01:00 +4°C° 0 mm 3 mps 741 mmHg 88%
    02:00 +4°C° 0 mm 4 mps 741 mmHg 86%
    03:00 +4°C° 0 mm 4 mps 740 mmHg 85%
    04:00 +3°C° 0 mm 4 mps 740 mmHg 85%
    05:00 +3°C° 0 mm 4 mps 739 mmHg 84%
    06:00 +2°C° 0 mm 5 mps 739 mmHg 84%
    07:00 +2°C° 0 mm 5 mps 739 mmHg 83%
    08:00 +2°C° 0 mm 5 mps 739 mmHg 82%
    09:00 +3°C° 0 mm 5 mps 739 mmHg 80%
    10:00 +5°C° 0 mm 5 mps 739 mmHg 78%
    11:00 +5°C° 0 mm 5 mps 739 mmHg 77%
    12:00 +6°C° 0 mm 5 mps 738 mmHg 76%
    13:00 +6°C° 0 mm 5 mps 738 mmHg 75%
    14:00 +7°C° 0 mm 5 mps 738 mmHg 74%
    15:00 +7°C° 0.1 mm 5 mps 738 mmHg 78%
    16:00 +6°C° 0.1 mm 4 mps 738 mmHg 81%
    17:00 +6°C° 0.1 mm 4 mps 738 mmHg 84%
    18:00 +6°C° 0.5 mm 4 mps 739 mmHg 85%
    19:00 +6°C° 0.5 mm 5 mps 739 mmHg 85%
    20:00 +4°C° 0.5 mm 6 mps 740 mmHg 85%
    21:00 +5°C° 0 mm 5 mps 740 mmHg 83%
    22:00 +3°C° 0 mm 5 mps 741 mmHg 81%
    23:00 +3°C° 0 mm 5 mps 741 mmHg 79%

    3 February, Monday

    Time Temperature Precipitation Wind Pressure Humidity
    00:00 +2°C° 0 mm 5 mps 741 mmHg 80%
    01:00 +2°C° 0 mm 5 mps 741 mmHg 82%
    02:00 +1°C° 0 mm 5 mps 741 mmHg 83%
    03:00 +1°C° 0 mm 5 mps 741 mmHg 83%
    04:00 +2°C° 0 mm 6 mps 741 mmHg 84%
    05:00 +2°C° 0 mm 6 mps 741 mmHg 84%
    06:00 +2°C° 0 mm 6 mps 741 mmHg 84%
    07:00 +2°C° 0 mm 5 mps 741 mmHg 84%
    08:00 +2°C° 0 mm 5 mps 741 mmHg 84%
    09:00 +2°C° 0 mm 6 mps 741 mmHg 79%
    10:00 +3°C° 0 mm 7 mps 741 mmHg 74%
    11:00 +3°C° 0 mm 7 mps 741 mmHg 69%
    12:00 +3°C° 0 mm 7 mps 741 mmHg 68%
    13:00 +3°C° 0 mm 7 mps 741 mmHg 67%
    14:00 +4°C° 0 mm 7 mps 741 mmHg 65%
    15:00 +3°C° 0 mm 6 mps 741 mmHg 67%
    16:00 +3°C° 0 mm 6 mps 741 mmHg 68%
    17:00 +3°C° 0 mm 5 mps 741 mmHg 69%
    18:00 +3°C° 0 mm 4 mps 741 mmHg 73%
    19:00 +3°C° 0 mm 4 mps 741 mmHg 77%
    20:00 +1°C° 0 mm 4 mps 741 mmHg 80%
    21:00 +2°C° 0 mm 3 mps 741 mmHg 83%
    22:00 +1°C° 0 mm 3 mps 742 mmHg 87%
    23:00 +1°C° 0 mm 3 mps 742 mmHg 90%
    Show more